Flag for Poland Weather past 2 weeks in Elbląg, Poland

Now
62 °F

Passing clouds.


Feels Like: 62 °F
Forecast: 53 / 71 °F
Wind: 5 mph from East

Location: Hel

Current Time: Sep 16, 2014 at 8:02:39 PM

Latest Report: Sep 16, 2014 at 7:00 PM


Visibility: 19 mi

Pressure: 30.23 "Hg

Humidity: 82%

Dew point: 56 °F

Location of ElblągLocation

Historic Weather in Elbląg — Graph

°F

Elbląg temperature yesterday

Maximum temperature yesterday: 67 °F (at 2:00 PM)
Minimum temperature yesterday: 60 °F (at 7:00 AM)
Average temperature yesterday: 63 °F

Past Weeks' High & Low Weather Summary

 TemperatureHumidityPressure
High70 °F (Sep 5, 2:00 PM)98% (Sep 9, 2:00 AM)30.41 "Hg (Sep 9, 2:00 AM)
Low52 °F (Sep 6, 7:00 AM)57% (Sep 4, 1:00 PM)29.85 "Hg (Sep 10, 5:00 AM)
Average61 °F84%30.14 "Hg
* Reported Sep 1 6:00 PM — Sep 16 6:00 PM, Elbląg, Weather by CustomWeather, © 2014

Note: Actual official high and low records may vary slightly from our data, if they occured in-between our weather recording intervals... More about our weather records

Advertising

Elbląg weather history for previous 24 hours

 ConditionsComfort  
Time TempWeatherWind HumidityBarometerVisibility
6:00 PM
Sep 16
63 °FScattered clouds.3 mph78%30.24 "Hg19 mi
5:00 PM64 °FScattered clouds.5 mph75%30.24 "Hg19 mi
4:00 PM64 °FScattered clouds.5 mph72%30.25 "Hg19 mi
3:00 PM65 °FScattered clouds.5 mph72%30.26 "Hg19 mi
2:00 PM64 °FScattered clouds.3 mph72%30.28 "Hg19 mi
1:00 PM64 °FScattered clouds.5 mph75%30.29 "Hg19 mi
12:00 PM63 °FScattered clouds.3 mph75%30.29 "Hg19 mi
11:00 AM61 °FScattered clouds.3 mph78%30.30 "Hg16 mi
10:00 AM59 °FScattered clouds.2 mph78%30.30 "Hg16 mi
9:00 AM57 °FPassing clouds.3 mph78%30.30 "Hg16 mi
8:00 AM55 °FPassing clouds.2 mph92%30.29 "Hg16 mi
7:00 AM54 °FPassing clouds.2 mph92%30.28 "Hg16 mi
6:00 AM55 °FPassing clouds.2 mph89%30.28 "Hg16 mi
5:00 AM55 °FPassing clouds.15 mph90%30.27 "Hg16 mi
4:00 AM55 °FPassing clouds.3 mph88%30.28 "Hg16 mi
3:00 AM55 °FPassing clouds.2 mph85%30.28 "Hg16 mi
2:00 AM57 °FPassing clouds.3 mph81%30.27 "Hg16 mi
1:00 AM58 °FPassing clouds.3 mph75%30.28 "Hg16 mi
12:00 AM60 °FPassing clouds.5 mph72%30.28 "Hg16 mi
11:00 PM
Sep 15
60 °FPassing clouds.5 mph71%30.28 "Hg12 mi
10:00 PM61 °FPassing clouds.5 mph72%30.28 "Hg12 mi
9:00 PM61 °FPassing clouds.5 mph75%30.27 "Hg12 mi
8:00 PM62 °FPassing clouds.5 mph72%30.27 "Hg12 mi
Weather by CustomWeather, © 2014

See weather overviewHow to use our weather pages